Date String (YYYY-MM-DD hh:mm:ss) UTC,Instrument flags,Ambient pressure (hPa),Sample flow (lpm),Bypass flow (lpm),Sample temperature (°C),Ambient temperature (°C),ASC tube jacket temperature (°C),LED temperature (°C),Box temperature (°C),Sample RH (%),Span deviation,Mass concentration (μg/m³),Mass concentration (μg/m³),Mass concentration (μg/m³)
DateTimeUTC,F1_M11,P_M11,Q1_M11,Q2_M11,T1_M11,T2_M11,T3_M11,T4_M11,T5_M11,U1_M11,ZSPAN_M11,X0_M11,X2_M11,X1_M11
2023-03-06 02:00:00,,0819.3,5.04,0.00,21.1,22.2,00.0,29.8,23.1,13.4,0000.0,0006.32,0001.79,0001.11
2023-03-06 02:01:00,,0819.3,4.98,0.00,21.2,21.6,00.0,29.9,23.0,13.4,0000.0,0006.18,0001.80,0001.11
2023-03-06 02:02:00,,0819.3,4.98,0.00,21.1,20.6,00.0,29.9,22.7,13.4,0000.0,0005.09,0001.83,0001.11
2023-03-06 02:03:00,,0819.3,5.01,0.00,21.0,19.9,00.0,29.9,22.4,13.5,0000.0,0005.04,0001.82,0001.12
2023-03-06 02:04:00,,0819.3,4.99,0.00,20.9,19.3,00.0,29.9,22.2,13.6,0000.0,0005.12,0001.83,0001.12
2023-03-06 02:05:00,,0819.3,5.00,0.00,20.8,18.9,00.0,29.9,22.0,13.6,0000.0,0005.10,0001.80,0001.12
2023-03-06 02:06:00,,0819.3,4.99,0.00,20.7,18.5,00.0,29.8,21.9,13.7,0000.0,0004.94,0001.77,0001.12
2023-03-06 02:07:00,,0819.3,5.02,0.00,20.6,19.0,00.0,29.8,22.0,13.8,0000.0,0004.92,0001.78,0001.10
2023-03-06 02:08:00,,0819.3,4.98,0.00,20.8,20.5,00.0,29.7,22.5,13.6,0000.0,0004.58,0001.78,0001.10
2023-03-06 02:09:00,,0819.4,5.02,0.00,21.0,21.6,00.0,29.7,22.9,13.5,0000.0,0004.13,0001.79,0001.11
2023-03-06 02:10:00,,0819.4,5.03,0.00,21.1,22.1,00.0,29.8,23.1,13.5,0000.0,0003.95,0001.82,0001.11
2023-03-06 02:11:00,,0819.4,4.99,0.00,21.1,21.3,00.0,29.8,22.8,13.4,0000.0,0003.87,0001.85,0001.11
2023-03-06 02:12:00,,0819.4,4.99,0.00,21.0,20.4,00.0,29.9,22.5,13.5,0000.0,0003.78,0001.81,0001.11
2023-03-06 02:13:00,,0819.5,5.01,0.00,20.9,19.7,00.0,29.9,22.3,13.5,0000.0,0003.65,0001.77,0001.12
2023-03-06 02:14:00,,0819.5,5.01,0.00,20.9,19.2,00.0,29.8,22.1,13.6,0000.0,0003.74,0001.80,0001.13
2023-03-06 02:15:00,,0819.6,5.00,0.00,20.7,18.9,00.0,29.8,22.0,13.6,0000.0,0004.44,0001.82,0001.13
2023-03-06 02:16:00,,0819.5,5.01,0.00,20.7,18.7,00.0,29.8,21.9,13.6,0000.0,0004.48,0001.84,0001.14
2023-03-06 02:17:00,,0819.5,5.01,0.00,20.7,19.8,00.0,29.7,22.2,13.5,0000.0,0004.60,0001.88,0001.16
2023-03-06 02:18:00,,0819.5,5.00,0.00,20.9,21.1,00.0,29.7,22.7,13.4,0000.0,0004.69,0001.86,0001.17
2023-03-06 02:19:00,,0819.5,4.97,0.00,21.0,22.0,00.0,29.7,23.0,13.2,0000.0,0004.94,0001.87,0001.19
2023-03-06 02:20:00,,0819.5,5.00,0.00,21.1,21.8,00.0,29.8,22.9,13.1,0000.0,0005.35,0001.88,0001.20
2023-03-06 02:21:00,,0819.5,4.97,0.00,21.0,20.8,00.0,29.8,22.6,13.1,0000.0,0005.43,0001.89,0001.20
2023-03-06 02:22:00,,0819.5,5.01,0.00,20.9,20.0,00.0,29.8,22.3,13.1,0000.0,0005.54,0001.91,0001.21
2023-03-06 02:23:00,,0819.5,5.00,0.00,20.8,19.4,00.0,29.8,22.1,13.2,0000.0,0005.70,0001.95,0001.23
2023-03-06 02:24:00,,0819.6,5.00,0.00,20.7,18.9,00.0,29.8,21.9,13.3,0000.0,0005.94,0002.03,0001.24
2023-03-06 02:25:00,,0819.6,4.99,0.00,20.6,18.5,00.0,29.7,21.8,13.3,0000.0,0006.66,0002.06,0001.23
2023-03-06 02:26:00,,0819.5,5.02,0.00,20.7,19.6,00.0,29.7,22.1,13.3,0000.0,0006.98,0002.07,0001.22
2023-03-06 02:27:00,,0819.6,5.01,0.00,20.8,20.9,00.0,29.6,22.6,13.2,0000.0,0007.18,0002.04,0001.22
2023-03-06 02:28:00,,0819.7,5.02,0.00,21.0,21.9,00.0,29.7,22.9,13.1,0000.0,0007.04,0002.01,0001.21
2023-03-06 02:29:00,,0819.6,5.02,0.00,21.1,21.8,00.0,29.7,22.9,13.1,0000.0,0007.12,0002.02,0001.20
2023-03-06 02:30:00,,0819.6,5.01,0.00,21.1,20.9,00.0,29.8,22.7,13.1,0000.0,0007.94,0002.07,0001.20
2023-03-06 02:31:00,,0819.6,5.00,0.00,21.0,20.1,00.0,29.8,22.4,13.2,0000.0,0007.44,0002.04,0001.19
2023-03-06 02:32:00,,0819.7,4.99,0.00,20.9,19.4,00.0,29.8,22.2,13.3,0000.0,0007.49,0002.07,0001.19
2023-03-06 02:33:00,,0819.8,5.00,0.00,20.8,18.9,00.0,29.7,22.0,13.4,0000.0,0007.48,0002.07,0001.19
2023-03-06 02:34:00,,0819.8,5.00,0.00,20.7,18.7,00.0,29.7,21.8,13.5,0000.0,0007.53,0002.10,0001.18
2023-03-06 02:35:00,,0819.9,5.01,0.00,20.6,19.6,00.0,29.6,22.1,13.5,0000.0,0007.58,0002.12,0001.18
2023-03-06 02:36:00,,0819.9,5.01,0.00,20.8,20.9,00.0,29.6,22.5,13.4,0000.0,0007.14,0002.06,0001.17
2023-03-06 02:37:00,,0819.9,4.95,0.00,21.0,21.8,00.0,29.6,22.9,13.3,0000.0,0006.41,0002.06,0001.20
2023-03-06 02:38:00,,0819.9,5.01,0.00,21.1,21.8,00.0,29.7,22.9,13.2,0000.0,0006.88,0002.12,0001.22
2023-03-06 02:39:00,,0819.9,5.01,0.00,21.0,20.8,00.0,29.8,22.6,13.3,0000.0,0007.09,0002.20,0001.24
2023-03-06 02:40:00,,0819.9,4.99,0.00,21.0,20.0,00.0,29.8,22.4,13.3,0000.0,0007.11,0002.28,0001.27
2023-03-06 02:41:00,,0819.9,5.00,0.00,20.9,19.4,00.0,29.8,22.2,13.4,0000.0,0005.82,0002.28,0001.29
2023-03-06 02:42:00,,0819.9,5.00,0.00,20.8,18.9,00.0,29.7,22.0,13.5,0000.0,0005.90,0002.31,0001.30
2023-03-06 02:43:00,,0820.0,4.99,0.00,20.7,18.5,00.0,29.7,21.9,13.5,0000.0,0005.68,0002.23,0001.30
2023-03-06 02:44:00,,0820.0,5.01,0.00,20.6,18.5,00.0,29.7,21.8,13.6,0000.0,0005.54,0002.20,0001.31
2023-03-06 02:45:00,,0819.9,4.99,0.00,20.7,19.9,00.0,29.6,22.2,13.6,0000.0,0005.38,0002.19,0001.32
2023-03-06 02:46:00,,0819.9,4.99,0.00,20.8,21.2,00.0,29.6,22.6,13.4,0000.0,0005.27,0002.18,0001.32
2023-03-06 02:47:00,,0819.9,4.97,0.00,21.0,21.9,00.0,29.6,22.9,13.3,0000.0,0005.18,0002.19,0001.33
2023-03-06 02:48:00,,0820.0,5.00,0.00,21.0,21.3,00.0,29.7,22.7,13.2,0000.0,0005.55,0002.20,0001.32
2023-03-06 02:49:00,,0819.9,5.01,0.00,20.9,20.3,00.0,29.7,22.4,13.3,0000.0,0004.53,0002.13,0001.30
2023-03-06 02:50:00,,0820.0,5.01,0.00,20.9,19.7,00.0,29.7,22.2,13.3,0000.0,0005.49,0002.10,0001.29
2023-03-06 02:51:00,,0820.0,5.00,0.00,20.7,19.1,00.0,29.7,22.0,13.3,0000.0,0005.75,0002.10,0001.28
2023-03-06 02:52:00,,0820.0,5.00,0.00,20.6,18.7,00.0,29.7,21.8,13.4,0000.0,0005.53,0002.09,0001.27
2023-03-06 02:53:00,,0820.0,5.01,0.00,20.6,18.5,00.0,29.6,21.7,13.5,0000.0,0005.84,0002.14,0001.28
2023-03-06 02:54:00,,0820.1,4.98,0.00,20.6,19.9,00.0,29.6,22.1,13.4,0000.0,0006.00,0002.20,0001.30
2023-03-06 02:55:00,,0820.2,5.02,0.00,20.8,21.2,00.0,29.6,22.6,13.3,0000.0,0006.09,0002.21,0001.32
2023-03-06 02:56:00,,0820.2,4.96,0.00,21.0,22.1,00.0,29.6,22.9,13.2,0000.0,0006.04,0002.19,0001.32
2023-03-06 02:57:00,,0820.2,4.97,0.00,21.1,22.3,00.0,29.7,23.0,13.1,0000.0,0005.96,0002.18,0001.34
2023-03-06 02:58:00,,0820.2,4.98,0.00,21.1,21.3,00.0,29.7,22.7,13.1,0000.0,0006.60,0002.19,0001.35
2023-03-06 02:59:00,,0820.2,5.01,0.00,21.0,20.3,00.0,29.7,22.3,13.1,0000.0,0006.21,0002.17,0001.36
